QFA737 EHAM-EDDK

Flight info

Callsign QFA737
Flight time 0h 36m
Altitude 23000
Route ARNEM L620 SONEB Z841 GETNI T858 KOPAG
Aircraft B738/M-SDE2E3FGHIRWXY/LB1

Departure

Time 2026-05-06 19:36
Airport Amsterdam Airport Schiphol (EHAM)

Arrival

Time 2026-05-06 20:13
Airport Cologne Bonn Airport (EDDK)
Time Latitude Longitude Altitude Speed Heading
2026-05-06 19:07 52.31073 4.75566 -4 ft 0 kts 147°
2026-05-06 19:24 52.31077 4.75562 -4 ft 2 kts 144°
2026-05-06 19:24 52.31089 4.75544 -3 ft 2 kts 131°
2026-05-06 19:24 52.31099 4.75522 -3 ft 2 kts 109°
2026-05-06 19:25 52.31101 4.75495 -4 ft 2 kts 78°
2026-05-06 19:25 52.31095 4.75470 -4 ft 2 kts 57°
2026-05-06 19:25 52.31090 4.75459 -4 ft 1 kts 51°
2026-05-06 19:25 52.31090 4.75458 -4 ft 0 kts 51°
2026-05-06 19:27 52.31092 4.75463 -4 ft 3 kts 49°
2026-05-06 19:27 52.31142 4.75495 -3 ft 11 kts
2026-05-06 19:28 52.31240 4.75489 -2 ft 18 kts 359°
2026-05-06 19:28 52.31381 4.75474 -5 ft 16 kts 359°
2026-05-06 19:28 52.31487 4.75459 -6 ft 15 kts 345°
2026-05-06 19:28 52.31512 4.75379 -7 ft 1 kts 264°
2026-05-06 19:29 52.31506 4.75256 -8 ft 16 kts 267°
2026-05-06 19:29 52.31503 4.75083 -6 ft 15 kts 264°
2026-05-06 19:29 52.31497 4.74916 -4 ft 14 kts 269°
2026-05-06 19:29 52.31491 4.74758 -4 ft 14 kts 268°
2026-05-06 19:30 52.31486 4.74606 -1 ft 13 kts 266°
2026-05-06 19:30 52.31482 4.74459 1 ft 13 kts 268°
2026-05-06 19:30 52.31466 4.74320 -13 ft 12 kts 238°
2026-05-06 19:30 52.31390 4.74278 -1 ft 12 kts 159°
2026-05-06 19:31 52.31307 4.74275 -2 ft 12 kts 189°
2026-05-06 19:31 52.31217 4.74264 -6 ft 14 kts 184°
2026-05-06 19:31 52.31037 4.74245 -6 ft 13 kts 180°
2026-05-06 19:32 52.30950 4.74239 -7 ft 13 kts 185°
2026-05-06 19:32 52.30863 4.74230 -8 ft 12 kts 184°
2026-05-06 19:32 52.30779 4.74223 -5 ft 12 kts 181°
2026-05-06 19:32 52.30696 4.74215 -5 ft 12 kts 183°
2026-05-06 19:33 52.30618 4.74193 -4 ft 11 kts 205°
2026-05-06 19:33 52.30590 4.74079 -3 ft 11 kts 243°
2026-05-06 19:33 52.30559 4.74061 -3 ft 6 kts 185°
2026-05-06 19:33 52.30474 4.74051 -3 ft 17 kts 183°
2026-05-06 19:34 52.30389 4.74044 -2 ft 0 kts 184°
2026-05-06 19:34 52.30378 4.74042 -2 ft 10 kts 186°
2026-05-06 19:34 52.30254 4.73959 -3 ft 25 kts 217°
2026-05-06 19:35 52.30188 4.73798 -4 ft 8 kts 275°
2026-05-06 19:35 52.30223 4.73734 -5 ft 8 kts 343°
2026-05-06 19:35 52.30296 4.73743 -8 ft 28 kts
2026-05-06 19:35 52.30810 4.73791 -1 ft 117 kts
2026-05-06 19:36 52.31823 4.73940 324 ft 166 kts
2026-05-06 19:36 52.33064 4.74204 1232 ft 187 kts 357°
2026-05-06 19:36 52.34418 4.74051 1892 ft 212 kts 14°
2026-05-06 19:36 52.35790 4.75088 2432 ft 227 kts 30°
2026-05-06 19:37 52.37206 4.76251 3112 ft 228 kts 28°
2026-05-06 19:37 52.38446 4.77872 3759 ft 230 kts 47°
2026-05-06 19:37 52.39537 4.79764 4547 ft 224 kts 46°
2026-05-06 19:37 52.40637 4.81642 5100 ft 232 kts 46°
2026-05-06 19:38 52.41735 4.83614 5702 ft 236 kts 56°
2026-05-06 19:38 52.42345 4.86127 6346 ft 244 kts 80°
2026-05-06 19:38 52.42446 4.88916 7094 ft 250 kts 88°
2026-05-06 19:38 52.42440 4.91805 7802 ft 258 kts 89°
2026-05-06 19:39 52.42429 4.94786 8531 ft 265 kts 89°
2026-05-06 19:39 52.42194 4.97819 9210 ft 276 kts 110°
2026-05-06 19:39 52.41103 5.00434 9988 ft 282 kts 138°
2026-05-06 19:39 52.39523 5.02364 10721 ft 286 kts 146°
2026-05-06 19:40 52.37861 5.04225 11387 ft 294 kts 146°
2026-05-06 19:40 52.36110 5.06199 11638 ft 317 kts 146°
2026-05-06 19:40 52.34258 5.08417 11806 ft 342 kts 137°
2026-05-06 19:40 52.32818 5.11645 11985 ft 363 kts 114°
2026-05-06 19:41 52.31836 5.15553 12333 ft 378 kts 110°
2026-05-06 19:41 52.30894 5.19641 12817 ft 389 kts 110°
2026-05-06 19:41 52.29956 5.23757 13397 ft 395 kts 110°
2026-05-06 19:41 52.28979 5.27987 14089 ft 398 kts 110°
2026-05-06 19:42 52.27985 5.32224 14693 ft 403 kts 111°
2026-05-06 19:42 52.26961 5.36534 15301 ft 407 kts 111°
2026-05-06 19:42 52.25928 5.40851 15905 ft 410 kts 111°
2026-05-06 19:42 52.24882 5.45209 16535 ft 413 kts 111°
2026-05-06 19:43 52.23826 5.49596 17156 ft 416 kts 112°
2026-05-06 19:43 52.22759 5.54015 17752 ft 420 kts 112°
2026-05-06 19:43 52.21693 5.58406 18304 ft 424 kts 112°
2026-05-06 19:43 52.20599 5.62893 18826 ft 426 kts 112°
2026-05-06 19:44 52.19501 5.67395 19361 ft 429 kts 112°
2026-05-06 19:44 52.18395 5.71921 19864 ft 432 kts 112°
2026-05-06 19:44 52.17276 5.76499 20348 ft 435 kts 112°
2026-05-06 19:44 52.16151 5.81091 20821 ft 438 kts 112°
2026-05-06 19:45 52.15017 5.85719 21298 ft 441 kts 112°
2026-05-06 19:45 52.13874 5.90368 21767 ft 444 kts 112°
2026-05-06 19:45 52.12725 5.95041 22204 ft 447 kts 112°
2026-05-06 19:45 52.11564 5.99752 22642 ft 450 kts 113°
2026-05-06 19:46 52.10388 6.04500 22952 ft 454 kts 113°
2026-05-06 19:46 52.09295 6.09382 22925 ft 464 kts 105°
2026-05-06 19:46 52.08658 6.14568 22948 ft 471 kts 100°
2026-05-06 19:46 52.08167 6.19809 22938 ft 478 kts 99°
2026-05-06 19:47 52.07695 6.25163 22927 ft 477 kts 99°
2026-05-06 19:47 52.07206 6.30498 22912 ft 475 kts 99°
2026-05-06 19:47 52.06690 6.35801 22916 ft 474 kts 100°
2026-05-06 19:47 52.06149 6.41111 22914 ft 474 kts 100°
2026-05-06 19:48 52.05595 6.46392 22912 ft 474 kts 100°
2026-05-06 19:48 52.05036 6.51672 22913 ft 474 kts 100°
2026-05-06 19:48 52.04473 6.56961 22913 ft 474 kts 101°
2026-05-06 19:48 52.03913 6.62242 22915 ft 475 kts 100°
2026-05-06 19:49 52.03356 6.67458 22909 ft 475 kts 101°
2026-05-06 19:49 52.02742 6.72735 22727 ft 474 kts 105°
2026-05-06 19:49 52.01736 6.77741 22408 ft 457 kts 114°
2026-05-06 19:49 52.00325 6.82259 22105 ft 442 kts 123°
2026-05-06 19:50 51.98713 6.86421 21808 ft 429 kts 123°
2026-05-06 19:50 51.97142 6.90458 21497 ft 418 kts 123°
2026-05-06 19:50 51.95618 6.94403 21207 ft 408 kts 123°
2026-05-06 19:50 51.94141 6.98264 20960 ft 397 kts 123°
2026-05-06 19:51 51.92715 7.02017 20903 ft 385 kts 123°
2026-05-06 19:51 51.91319 7.05694 20908 ft 384 kts 123°
2026-05-06 19:51 51.89908 7.09410 20921 ft 389 kts 123°
2026-05-06 19:51 51.88486 7.13154 20819 ft 392 kts 123°
2026-05-06 19:52 51.87040 7.16947 20101 ft 398 kts 123°
2026-05-06 19:52 51.85581 7.20770 19456 ft 399 kts 123°
2026-05-06 19:52 51.84117 7.24597 18842 ft 400 kts 123°
2026-05-06 19:52 51.82649 7.28430 18234 ft 401 kts 123°
2026-05-06 19:53 51.81177 7.32265 17527 ft 401 kts 123°
2026-05-06 19:53 51.79707 7.36094 16840 ft 401 kts 122°
2026-05-06 19:53 51.78240 7.39914 16214 ft 399 kts 122°
2026-05-06 19:53 51.76797 7.43670 16000 ft 387 kts 122°
2026-05-06 19:54 51.75419 7.47253 15869 ft 373 kts 122°
2026-05-06 19:54 51.74063 7.50765 15748 ft 362 kts 122°
2026-05-06 19:54 51.72741 7.54182 15632 ft 358 kts 122°
2026-05-06 19:54 51.71184 7.57305 15507 ft 360 kts 137°
2026-05-06 19:55 51.69161 7.59702 15104 ft 364 kts 152°
2026-05-06 19:55 51.66820 7.61258 14707 ft 358 kts 161°
2026-05-06 19:55 51.64529 7.62531 14307 ft 347 kts 161°
2026-05-06 19:55 51.62273 7.63756 13913 ft 337 kts 161°
2026-05-06 19:56 51.60074 7.64957 13500 ft 329 kts 161°
2026-05-06 19:56 51.57932 7.66143 13055 ft 322 kts 161°
2026-05-06 19:56 51.55828 7.67319 12575 ft 317 kts 160°
2026-05-06 19:56 51.53762 7.68483 12086 ft 313 kts 160°
2026-05-06 19:57 51.51713 7.69641 11598 ft 310 kts 160°
2026-05-06 19:57 51.49685 7.70788 11110 ft 308 kts 160°
2026-05-06 19:57 51.47671 7.71928 10590 ft 306 kts 160°
2026-05-06 19:57 51.45665 7.73063 10035 ft 306 kts 160°
2026-05-06 19:58 51.43652 7.74201 9427 ft 307 kts 160°
2026-05-06 19:58 51.41611 7.75352 8779 ft 307 kts 160°
2026-05-06 19:58 51.39646 7.76459 8195 ft 307 kts 160°
2026-05-06 19:58 51.37634 7.77593 7578 ft 306 kts 160°
2026-05-06 19:59 51.35626 7.78729 6980 ft 306 kts 160°
2026-05-06 19:59 51.33624 7.79863 6399 ft 305 kts 160°
2026-05-06 19:59 51.31655 7.80978 6094 ft 293 kts 160°
2026-05-06 19:59 51.29789 7.82034 5989 ft 276 kts 160°
2026-05-06 20:00 51.28041 7.83023 5972 ft 258 kts 160°
2026-05-06 20:00 51.26373 7.83967 5976 ft 252 kts 160°
2026-05-06 20:00 51.24728 7.84897 5979 ft 249 kts 160°
2026-05-06 20:00 51.23113 7.85809 5987 ft 247 kts 160°
2026-05-06 20:01 51.21499 7.86719 5987 ft 246 kts 161°
2026-05-06 20:01 51.19888 7.87625 5989 ft 244 kts 161°
2026-05-06 20:01 51.18281 7.88527 5993 ft 244 kts 161°
2026-05-06 20:01 51.16730 7.89630 5981 ft 244 kts 148°
2026-05-06 20:02 51.15342 7.91167 5996 ft 243 kts 143°
2026-05-06 20:02 51.13968 7.92750 5975 ft 244 kts 153°
2026-05-06 20:02 51.12345 7.93360 5988 ft 241 kts 185°
2026-05-06 20:02 51.10773 7.92551 5976 ft 239 kts 217°
2026-05-06 20:03 51.09601 7.90710 6005 ft 238 kts 232°
2026-05-06 20:03 51.08546 7.88658 5987 ft 240 kts 233°
2026-05-06 20:03 51.07500 7.86578 6000 ft 242 kts 233°
2026-05-06 20:03 51.06515 7.84403 5982 ft 242 kts 241°
2026-05-06 20:04 51.05685 7.82077 5990 ft 243 kts 243°
2026-05-06 20:04 51.04871 7.79719 5980 ft 243 kts 243°
2026-05-06 20:04 51.04063 7.77364 5986 ft 243 kts 243°
2026-05-06 20:04 51.03254 7.75004 5988 ft 242 kts 243°
2026-05-06 20:05 51.02459 7.72686 5989 ft 242 kts 244°
2026-05-06 20:05 51.01656 7.70344 5980 ft 241 kts 244°
2026-05-06 20:05 51.00847 7.67981 5993 ft 240 kts 244°
2026-05-06 20:05 51.00054 7.65672 5908 ft 244 kts 244°
2026-05-06 20:06 50.99229 7.63259 5537 ft 248 kts 244°
2026-05-06 20:06 50.98410 7.60870 5204 ft 244 kts 244°
2026-05-06 20:06 50.97598 7.58513 4866 ft 241 kts 244°
2026-05-06 20:06 50.96801 7.56203 4511 ft 237 kts 246°
2026-05-06 20:07 50.96370 7.53751 4188 ft 228 kts 264°
2026-05-06 20:07 50.96121 7.51262 3829 ft 229 kts 263°
2026-05-06 20:07 50.95953 7.49602 3637 ft 230 kts 263°
2026-05-06 20:07 50.95704 7.47088 3294 ft 231 kts 264°
2026-05-06 20:08 50.95343 7.43760 3029 ft 231 kts 258°
2026-05-06 20:08 50.95013 7.42109 3007 ft 233 kts 251°
2026-05-06 20:08 50.94355 7.39762 2973 ft 231 kts 246°
2026-05-06 20:08 50.93671 7.37555 2967 ft 219 kts 246°
2026-05-06 20:09 50.93034 7.35489 2981 ft 198 kts 247°
2026-05-06 20:09 50.92443 7.33552 2740 ft 191 kts 248°
2026-05-06 20:09 50.91877 7.31691 2513 ft 186 kts 248°
2026-05-06 20:09 50.91320 7.29856 2265 ft 182 kts 248°
2026-05-06 20:10 50.90783 7.28092 2035 ft 174 kts 248°
2026-05-06 20:10 50.90267 7.26393 1791 ft 168 kts 248°
2026-05-06 20:10 50.89774 7.24772 1561 ft 157 kts 249°
2026-05-06 20:10 50.89310 7.23247 1379 ft 152 kts 247°
2026-05-06 20:11 50.88878 7.21819 1180 ft 150 kts 248°
2026-05-06 20:11 50.88426 7.20330 999 ft 149 kts 248°
2026-05-06 20:11 50.87964 7.18855 765 ft 148 kts 247°
2026-05-06 20:11 50.87544 7.17399 614 ft 145 kts 248°
2026-05-06 20:12 50.87091 7.15941 371 ft 148 kts 246°
2026-05-06 20:12 50.86667 7.14532 280 ft 130 kts 247°
2026-05-06 20:12 50.86309 7.13354 255 ft 93 kts 243°
2026-05-06 20:12 50.86096 7.12659 246 ft 65 kts 244°
2026-05-06 20:13 50.86021 7.12422 244 ft 4 kts 195°
2026-05-06 20:13 50.85994 7.12432 244 ft 4 kts 169°
2026-05-06 20:13 50.85932 7.12443 244 ft 15 kts 173°
2026-05-06 20:13 50.85807 7.12499 241 ft 24 kts 163°
2026-05-06 20:14 50.85770 7.12522 239 ft 0 kts 155°